Regional Weather Roundup
Issued by NWS Boston, MA

Home | Current Version | Previous Version | Text Only | Print | Product List | Glossary On
Versions: 1 2 3 4 5 6 7 8 9 10 11 12 13 14 15 16 17 18 19 20 21 22 23 24 25 26 27
000
ASUS41 KBOX 160710
RWRBOX

REGIONAL WEATHER ROUNDUP
NATIONAL WEATHER SERVICE TAUNTON MA
200 AM EST TUE JAN 16 2018

NOTE:  "FAIR" INDICATES FEW OR NO CLOUDS BELOW 12,000 FEET WITH NO
SIGNIFICANT WEATHER AND/OR OBSTRUCTIONS TO VISIBILITY.

MAZALL-160800-
EASTERN MASSACHUSETTS

CITY           SKY/WX    TMP DP  RH WIND       PRES   REMARKS
BOSTON         CLOUDY    21  12  68 N8        30.51F WCI  11
BEVERLY        CLOUDY    20  13  74 N8        30.51S WCI  10
LAWRENCE       CLOUDY    22  12  65 N5        30.53R WCI  16
BEDFORD        CLOUDY    20   6  55 N5        30.50S WCI  13
BLUE HILL        N/A     18  11  74 N7        30.45R WCI   9
NORWOOD        CLOUDY    24  12  60 NW3       30.51S
MARSHFIELD     CLOUDY    25  23  93 MISG      30.49S
PLYMOUTH       CLOUDY    23  19  85 NW10      30.48F WCI  12
TAUNTON        CLOUDY    22  12  65 VRB6      30.49S WCI  14
NEW BEDFORD    CLOUDY    22  13  68 N8        30.48S WCI  12
$$

MAZALL-160800-
CAPE COD AND THE ISLANDS

CITY           SKY/WX    TMP DP  RH WIND       PRES   REMARKS
FALMOUTH       LGT SNOW  23  23 100 MISG      30.48
HYANNIS        CLOUDY    31  27  85 N12       30.44S WCI  22
CHATHAM        CLOUDY    31  29  92 VRB6      30.46R WCI  25
PROVINCETOWN   CLOUDY    30  26  85 N13       30.48R WCI  20
NANTUCKET      LGT SNOW  31  31 100 N16       30.44R FOG     WCI  20
MARTHAS VNYRD  CLOUDY   N/A N/A N/A NW14      30.47R
$$

MAZALL-160800-
CENTRAL AND WESTERN MASSACHUSETTS

CITY           SKY/WX    TMP DP  RH WIND       PRES   REMARKS
WORCESTER      CLOUDY    17   4  56 NE5       30.43F WCI  10
FITCHBURG      CLOUDY    21   6  52 CALM      30.51S
ORANGE         CLOUDY   N/A N/A N/A N5        30.49S
SPRINGFIELD    CLOUDY    20   8  60 NE6       30.48F WCI  12
WESTFIELD      CLOUDY    20   7  57 N6        30.49S WCI  12
NORTH ADAMS    CLOUDY    18  11  74 E6        30.44F WCI  10
PITTSFIELD     CLOUDY    16   9  74 CALM      30.40R
$$

RIZALL-160800-
RHODE ISLAND

CITY           SKY/WX    TMP DP  RH WIND       PRES   REMARKS
PROVIDENCE     CLOUDY    23   9  55 N7        30.50S WCI  15
NEWPORT        CLOUDY    22  13  68 N6        30.49R WCI  14
BLOCK ISLAND   CLOUDY    27  23  85 NE13      30.48R WCI  16
SMITHFIELD     CLOUDY   N/A N/A N/A NE7       30.48S
WESTERLY       CLOUDY    25  19  78 N5        30.49S WCI  19
$$

CTZALL-160800-
CONNECTICUT

CITY           SKY/WX    TMP DP  RH WIND       PRES   REMARKS
BRADLEY INTL   FAIR      20   9  62 N5        30.49F WCI  13
HARTFORD       FAIR     N/A N/A N/A N3        30.51R
BRIDGEPORT     MOCLDY    20  11  68 NW6       30.50S WCI  12
DANBURY        CLOUDY    20  13  74 CALM      30.48R
GROTON         CLOUDY    24  15  68 NE7       30.48S WCI  16
NEW HAVEN      FAIR      18   8  65 CALM      30.49R
CHESTER        FAIR      21  16  79 CALM      30.46S
MERIDEN        FAIR      17   9  70 CALM      30.50R
WILLIMANTIC    CLOUDY    23  13  65 N3        30.48F
OXFORD         FAIR      16   8  71 CALM      30.45R
$$

MEZ002-015-021-024-NHZ003-005-008-011-012-014-VTZ005-008-160800-
NORTHERN NEW ENGLAND

CITY           SKY/WX    TMP DP  RH WIND       PRES   REMARKS
PORTLAND ME    CLOUDY    16  11  80 VRB7      30.54R WCI   6
BANGOR ME      FLURRIES  13   7  77 N14       30.53F WCI  -2
CONCORD NH     CLOUDY    15   5  64 NE5       30.51R WCI   8
MANCHESTER NH  CLOUDY    19   5  54 N5        30.49S WCI  12
NASHUA NH      CLOUDY    19   7  59 N5        30.52S WCI  12
PORTSMOUTH NH  CLOUDY    18  11  73 N8        30.51R WCI   8
JAFFREY NH     CLOUDY    18   4  54 CALM      30.43F
KEENE NH       CLOUDY    18   8  65 CALM      30.49R
BURLINGTON VT  CLOUDY     5   0  79 CALM      30.48S
MT. WASHINGTON MOCLDY    10 -31  13 W23         N/A  WCI -10
$$

NYZ052-076-160800-
EASTERN NEW YORK

CITY           SKY/WX    TMP DP  RH WIND       PRES   REMARKS
ALBANY         CLOUDY    15   5  64 CALM      30.50R
NEW YORK CITY  CLOUDY    25  17  72 E9        30.49R WCI  15
$$

ANZALL-160800-
MARINE OBSERVATIONS

STATION/POSITION TIME  TEMP    WIND        PRES    VSBY  WAVE
                       AIR SEA DIR/SP/G                  HT/PER
                 (UTC) (F)     (DEG/KT/KT) (MB)    (MI)  (FT/S)
BOSTON BUOY      0650   27 42  360/ 14/ 17 1032.1R         9/10
BUZZARDS BAY     0600   23      10/ 17/ 19 1032.3F
NANTUCKET SOUND  0650   31 37  360/ 19/ 21 1030.6R         4/ 4
MASS BAY-STELLWA 0604   26 40              1031.8R        10/11
ISLE OF SHOALS   0600   20      10/ 16/ 18 1032.8F
S OF BLOCK IS    0643      41                N/A           6/ 9
$$

......................KEY.........................
  SKY/WX - SKY CONDITION/PRESENT WEATHER
  TMP    - TEMPERATURE IN FAHRENHEIT
  DWPT   - DEWPOINT IN FAHRENHEIT
  RH     - RELATIVE HUMIDITY IN PERCENT
  WIND   - DIRECTION AND SPEED IN MPH
  PRES   - MEAN SEA LEVEL PRESSURE IN INCHES OF HG
  WCI    - WIND CHILL INDEX
  VSB    - VISIBILITY IN MILES
  HX     - HEAT INDEX
  TC     - TEMPERATURE IN CELSIUS
  VRB    - VARIABLE WIND DIRECTION
  N/A    - NOT AVAILABLE




USA.gov is the U.S. government's official web portal to all federal, state and local government web resources and services.